Location: Dominikální Paseky
(49.7556°N, 13.9969°E)
Time: 07:36:22
(UTC+00:00)

Daily predictions for brighter satellites

Satellite Brightness Start Highest point End
(mag) Time Altitude Azimuth Time Altitude Azimuth Time Altitude Azimuth
PAYLOAD B 4.4 19:13:26 10° SSE 19:18:57 81° WSW 19:24:33 10° NNW
MOS 1 4.5 19:14:44 10° SSE 19:20:25 80° WSW 19:26:09 10° NNW
Ariane Rocket 4.3 19:19:50 10° ESE 19:23:56 26° ENE 19:28:04 10° N
Cosmos 1626 Rocket 4.1 19:19:47 10° N 19:23:58 43° ENE 19:28:10 10° SSE
Cosmos 2278 4.4 19:19:26 10° NNW 19:24:56 45° NE 19:30:24 10° SE
Cosmos 1782 2.5 19:24:45 10° S 19:28:16 88° W 19:31:49 10° N
Spot 2 Rocket 3.6 19:24:01 10° SSE 19:28:58 64° ENE 19:33:58 10° N
SL-16 R/B 2.5 19:23:30 10° NNW 19:29:07 58° ENE 19:34:42 10° SE
Cosmos 1607 4.1 19:23:56 10° SW 19:30:06 84° NW 19:36:26 10° NE
ERS-1 Rocket 3.4 19:27:11 10° S 19:32:08 63° WSW 19:37:08 10° NNW
SPOT 3 Rocket 4.3 19:29:14 10° SE 19:33:55 38° ENE 19:38:38 10° N
Meteor 1-27 4.4 19:28:35 10° SSW 19:34:13 81° WNW 19:39:50 10° N
MOS 1-B 4.4 19:31:06 10° SSE 19:36:52 70° ENE 19:42:40 10° NNW
Cosmos 1980 Rocket 3.8 19:38:06 10° NW 19:43:01 31° WSW 19:47:54 10° SSW
Cosmos 2061 Rocket 4.0 19:37:12 10° S 19:43:24 74° E 19:49:42 10° NNE
CZ-4 R/B 3.2 19:41:36 10° SSW 19:44:38 25° W 19:47:42 10° NW
USA 186 1.4 19:42:51 11° SSE 19:45:23 63° ENE 19:48:08 10° N
Cosmos 2228 3.1 19:41:57 10° SSW 19:46:03 74° WNW 19:50:10 10° N
USA 290 4.2 19:45:43 11° ESE 19:46:20 12° E 19:47:33 10° ENE
COSMOS 2406 3.3 19:41:11 10° S 19:46:49 60° ESE 19:52:28 10° NE
CZ-4B R/B 4.1 19:43:25 11° SE 19:47:38 38° ENE 19:52:07 10° N
SL-08 R/B 3.3 19:42:49 10° NNE 19:47:40 81° ESE 19:52:24 10° SSW
Cosmos 1933 3.9 19:45:09 10° SSE 19:48:38 36° E 19:52:09 10° NNE
Cosmos 1743 4.4 19:46:48 10° NW 19:49:15 23° W 19:51:41 10° SW
ISS -3.3 19:47:10 10° W 19:50:29 61° N 19:53:49 10° ENE
Cosmos 1461 2.7 19:47:16 10° SSW 19:50:51 51° SE 19:54:27 10° NE
Cosmos 1455 Rocket 4.3 19:46:41 10° SSW 19:50:54 45° WNW 19:55:08 10° N
Cosmos 1992 Rocket 4.0 19:45:53 10° SSW 19:51:05 83° ESE 19:56:20 10° NNE
Terra 2.8 19:48:08 10° S 19:52:38 45° W 19:57:09 10° NNW
Meteor 1-20 Rocket 4.3 19:48:13 10° N 19:53:48 71° ENE 19:59:21 11° SSE
Okean O Rocket 1.6 19:52:51 10° S 19:57:08 79° WSW 20:01:28 10° NNW
Cosmos 1777 Rocket 4.5 19:53:52 10° NNW 19:58:58 50° ENE 20:03:12 14° SE
Cosmos 2333 Rocket 2.2 19:53:44 10° NNW 19:59:28 83° ENE 20:04:29 14° SSE
Cosmos 1544 Rocket 3.5 20:00:15 10° S 20:04:34 74° E 20:08:53 10° NNE
NOSS 3-3 (A) 4.0 19:59:44 10° SW 20:04:59 76° NW 20:11:23 10° NE
Cosmos 1437 Rocket 2.5 20:03:31 10° S 20:07:02 65° E 20:10:37 10° NNE
Helios 1A Rocket 4.5 20:06:10 10° N 20:08:54 27° WNW 20:11:37 10° SW
Cosmos 2360 Rocket 2.4 20:03:51 10° NNW 20:09:30 62° ENE 20:13:59 16° SE
Okean 1-7 Rocket 4.2 20:05:40 10° N 20:09:56 42° ENE 20:13:00 17° SE
CZ-4B R/B 4.5 20:07:47 10° SSW 20:13:02 39° W 20:18:16 10° NNW
EP 1 4.2 20:11:43 10° NW 20:14:18 84° SW 20:15:44 25° SE
Cosmos 1891 Rocket 4.4 20:10:37 10° S 20:16:41 75° E 20:22:43 10° NNE
Okean-O 3.4 20:15:08 10° S 20:19:22 49° W 20:23:39 10° NNW
Cosmos 2333 4.5 20:13:48 10° NNW 20:19:29 62° ENE 20:23:47 18° SE
Cosmos 1486 Rocket 4.0 20:14:41 10° NNW 20:19:58 80° ENE 20:23:55 18° SSE
Cosmos 1758 Rocket 4.1 20:17:18 10° NNW 20:21:37 57° W 20:25:51 11° S
Cosmos 2219 Rocket 2.7 20:16:41 10° NNW 20:22:12 51° NE 20:26:24 17° SE
Cosmos 909 Rocket 4.4 20:15:56 10° SW 20:22:12 70° NW 20:28:50 10° NE
CZ-2C R/B 2.6 20:21:09 25° ESE 20:22:17 39° ENE 20:24:55 10° N
DNEPR-1 R/B 4.5 20:24:36 10° NW 20:30:05 73° SW 20:34:56 19° SSE
USA 245 4.4 20:25:40 14° S 20:30:51 75° WSW 20:36:22 10° NNW
Cosmos 540 Rocket 4.2 20:28:06 19° SSE 20:30:57 33° ESE 20:35:33 10° NE
Nadezhda 4 Rocket 4.0 20:24:51 10° N 20:30:58 67° ENE 20:35:27 19° SSE
Meteor 1-25 Rocket 4.3 20:25:28 10° NNW 20:31:09 80° W 20:35:41 16° S
IRS-1C Rocket 4.1 20:27:08 18° SSE 20:31:11 85° ENE 20:36:29 10° NNW
Cosmos 1825 Rocket 3.7 20:30:02 10° N 20:34:21 60° ENE 20:36:52 24° SSE
Cosmos 1805 2.7 20:31:38 10° N 20:34:55 89° W 20:36:34 27° S
Cosmos 220 Rocket 3.8 20:33:06 10° SSW 20:37:10 84° WNW 20:41:18 10° NNE
NOSS 3-3 (C) 4.4 20:32:21 10° WSW 20:37:40 60° NW 20:44:07 10° NE
Meteor 2-10 4.2 20:33:04 10° N 20:38:51 80° ENE 20:42:50 21° SSE
Cosmos 1953 Rocket 4.2 20:36:55 10° N 20:41:04 41° ENE 20:43:09 24° SE
Helios 1A 4.3 20:38:52 10° NE 20:41:47 20° E 20:42:24 19° ESE
Cosmos 2322 Rocket 2.3 20:36:21 10° NNW 20:42:02 77° WSW 20:45:49 22° SSE
RESURS DK-1 4.2 20:39:46 10° N 20:42:50 21° NE 20:45:33 11° E
Cosmos 1602 Rocket 4.0 20:41:21 10° NNW 20:45:35 55° W 20:48:44 17° SSW
USA 306 3.4 20:44:34 10° WNW 20:46:42 22° N 20:47:38 15° NE
Cosmos 2082 Rocket 4.1 20:42:13 10° WSW 20:47:19 32° NW 20:52:26 10° NNE
NOSS 3-4 (A) 4.0 20:43:05 10° NW 20:49:45 68° SW 20:55:06 22° SSE
NOSS 3-4 (C) 4.0 20:43:43 10° NW 20:50:24 68° SW 20:55:45 22° SSE
Cosmos 1707 3.5 20:52:04 22° E 20:52:04 22° E 20:54:08 10° NE
CZ-4B R/B 3.5 20:49:58 19° SSW 20:51:59 39° W 20:55:17 10° NNW
Cosmos 2026 Rocket 4.3 20:46:56 10° N 20:53:14 58° ENE 20:57:08 24° SSE
Cosmos 2058 Rocket 4.0 20:53:53 26° ESE 20:55:12 31° E 20:59:02 10° NNE
Cosmos 2151 4.5 20:52:07 10° NNW 20:55:42 30° W 20:59:05 11° SSW
Cosmos 2098 Rocket 3.2 20:53:24 14° SSW 20:57:21 71° W 21:01:25 10° N
Cosmos 1076 Rocket 3.4 20:54:07 10° N 20:58:22 77° ENE 21:00:20 31° SSE
Cosmos 44 3.7 20:54:10 10° NW 20:59:34 67° NE 21:02:45 24° SE
Cosmos 2237 Rocket 4.1 20:55:43 10° N 21:00:02 21° NE 21:04:19 10° E
Ariane Rocket 3.5 20:59:02 19° S 21:02:30 54° W 21:07:29 10° NNW
Meteor 1-26 Rocket 4.3 21:09:41 27° SSE 21:12:39 61° E 21:18:17 10° NNE
SL-16 R/B 3.7 21:08:08 10° NW 21:12:50 27° WSW 21:16:43 13° SSW
COSMOS 2428 3.5 21:08:38 10° NNW 21:14:06 45° NE 21:17:37 21° ESE
Cosmos 1763 Rocket 3.4 21:10:53 18° SSW 21:14:54 83° ESE 21:20:12 10° NNE
Cosmos 1470 3.9 21:12:56 10° NNE 21:15:38 23° ENE 21:16:07 22° E
ARIANE 5 R/B 4.1 21:15:19 19° ESE 21:17:18 26° ENE 21:21:02 10° N
ALOS 2 4.3 21:17:23 17° E 21:19:23 23° ENE 21:22:50 10° N
USA 290 3.1 21:18:07 20° SW 21:20:02 46° WNW 21:23:05 10° NNE
Cosmos 1606 Rocket 4.1 21:17:14 18° SSW 21:20:17 54° WNW 21:24:31 10° N
Cosmos 1898 Rocket 4.1 21:16:45 10° NNW 21:21:46 46° ENE 21:24:23 26° ESE
Cosmos 990 Rocket 4.1 21:18:31 10° NNW 21:23:39 65° WSW 21:26:04 31° S
Cosmos 1464 Rocket 4.4 21:18:40 12° SSW 21:24:15 60° WNW 21:30:25 10° N
Helios 1B rocket 2.6 21:24:22 38° ESE 21:25:05 44° ENE 21:28:27 10° N
Meteor 2-2 Rocket 4.3 21:22:13 29° S 21:25:05 65° E 21:30:50 10° NNE
ISS -3.8 21:24:06 10° WNW 21:27:28 84° NNE 21:28:15 49° E
Okean 1 3.9 21:25:54 24° SW 21:27:42 46° WNW 21:31:11 10° N
Cosmos 1726 Rocket 3.7 21:25:49 26° SSW 21:27:56 60° WNW 21:31:58 10° N
BREEZE-M DEB (TANK) 2.8 21:27:06 10° W 21:28:12 24° W 21:28:12 24° W
IKONOS-2 4.3 21:31:49 10° NNE 21:35:58 78° ESE 21:37:15 43° S
Cosmos 1536 2.5 21:32:33 10° N 21:36:15 86° ENE 21:36:59 56° SSE
CSL-04 DEB 4.5 21:36:01 44° ESE 21:36:43 52° ENE 21:40:16 10° N
Cosmos-2242 2.9 21:37:47 39° SSW 21:39:15 81° WNW 21:43:23 10° N
Cosmos 1092 Rocket 4.0 21:35:57 10° NNW 21:42:09 78° W 21:45:20 31° S
Cosmos 2333 Rocket 4.2 21:39:15 10° WNW 21:43:02 19° W 21:46:30 11° SW
NOSS 0 Rocket 4.3 21:37:14 10° NNW 21:43:20 58° NE 21:46:51 26° SE
KORONAS-FOTON 3.3 21:43:53 72° SSE 21:44:08 78° E 21:47:32 10° NNE
Cosmos 2297 Rocket 3.4 21:46:14 23° ESE 21:47:03 24° ESE 21:51:27 10° NE
Cosmos 841 Rocket 4.0 21:47:27 36° SE 21:48:43 43° ESE 21:53:40 10° NE
Meteor 1-14 Rocket 4.2 21:46:54 10° N 21:52:27 69° ENE 21:54:40 37° SSE
Cosmos 2360 Rocket 3.7 21:48:29 10° NW 21:53:04 26° WSW 21:55:44 18° SW
Cosmos 1766 3.7 21:53:30 10° NNW 21:56:29 36° W 21:56:45 35° WSW
Cosmos 1842 2.6 21:56:49 77° NE 21:56:49 77° NE 21:59:49 10° NNE
Cosmos 2322 3.6 21:52:16 10° NNW 21:58:00 88° WSW 22:00:18 38° SSE
Cosmos 1975 2.7 21:55:12 10° N 21:58:51 59° ENE 21:59:14 55° ESE
Spot 4 4.0 21:57:15 39° SE 21:58:52 62° ENE 22:03:37 10° N
Meteor 2-6 Rocket 4.3 21:58:28 34° S 22:01:13 83° E 22:07:12 10° NNE
Cosmos 1812 Rocket 4.1 22:02:59 39° ESE 22:03:42 43° E 22:07:54 10° NNE
Cosmos 372 Rocket 4.0 21:58:44 10° NNW 22:03:47 65° WSW 22:05:24 42° S
Cosmos 2221 2.6 22:03:18 50° SE 22:03:55 56° E 22:08:01 10° NNE
Cosmos 2219 Rocket 3.3 22:00:59 10° NW 22:05:56 32° WSW 22:08:05 24° SW
Cosmos 1271 Rocket 2.2 22:06:21 87° SSE 22:06:24 89° E 22:09:48 10° NNE
SL-08 ROCKET BODY 4.5 22:04:45 10° NNW 22:10:56 79° W 22:13:38 36° S
Helios 1A 3.8 22:12:56 10° N 22:16:39 42° WNW 22:18:07 29° WSW
ARGOS Delta rocket 4.2 22:11:47 10° NNE 22:16:56 61° E 22:18:32 42° SSE
Cosmos 2279 Rocket 4.0 22:16:39 34° SSW 22:19:38 83° W 22:25:56 10° N
RESURS DK-1 2.4 22:16:35 10° NW 22:20:30 57° WSW 22:20:45 55° SW
Cosmos 1707 4.4 22:23:33 16° W 22:24:02 16° WNW 22:25:56 10° NNW
Cosmos 2322 Rocket 4.4 22:22:27 10° WNW 22:25:06 14° W 22:27:37 10° WSW
Cosmos 1634 Rocket 4.5 22:22:34 25° SW 22:26:08 55° WNW 22:32:14 10° N
Cosmos 858 Rocket 4.4 22:21:03 10° NNW 22:26:15 79° ENE 22:27:57 43° SE
Meteor 1-19 Rocket 4.2 22:24:38 40° S 22:26:51 81° E 22:32:50 10° NNE
Cosmos 1937 Rocket 3.4 22:23:36 10° NNW 22:28:44 73° WSW 22:30:09 47° S
CZ-2C R/B 3.7 22:28:29 10° N 22:32:58 74° WNW 22:34:15 46° SW
SL-16 R/B 3.9 22:28:26 10° NNW 22:33:19 28° NE 22:38:11 10° ESE
GP-B 3.2 22:31:04 10° N 22:35:26 62° E 22:36:11 52° SE
Meteor 2-9 Rocket 4.5 22:34:20 10° NNW 22:39:36 55° W 22:41:24 38° SSW
CZ-2C R/B 3.1 22:39:09 31° SE 22:41:20 52° ENE 22:46:22 10° N
Lacrosse 4 Rocket 2.3 22:42:44 32° E 22:42:44 32° E 22:45:56 10° NE
Cosmos 2237 Rocket 2.2 22:39:14 10° NNW 22:44:57 85° ENE 22:47:09 39° SSE
SeaSat 1 3.8 22:42:55 14° ESE 22:46:34 35° NE 22:50:59 10° NNW
USA 234 3.4 22:40:55 10° ENE 22:47:17 51° SE 22:49:36 36° S
Cosmos 2266 Rocket 3.9 22:42:07 10° NNW 22:48:10 77° W 22:50:26 40° S
Cosmos 1980 3.6 22:43:30 10° NNW 22:49:12 85° WSW 22:51:12 42° SSE
Cosmos 1470 4.1 22:46:49 10° NW 22:49:19 23° W 22:49:19 23° W
Intercosmos 24 3.5 22:49:29 10° N 22:53:19 83° E 22:53:29 79° SE
ATLAS 2AS CENTAUR R/B 4.3 22:47:19 10° NW 22:53:24 33° NNE 22:59:28 10° E
ARIANE 5 R/B 3.3 22:52:41 38° SW 22:53:25 41° W 22:57:41 10° NNW
ALOS 2 3.0 22:54:46 43° SW 22:55:27 47° W 22:59:43 10° NNW
Cosmos 2227 Rocket 3.0 22:55:49 31° SE 22:57:04 35° ESE 23:02:09 10° NE
COSMOS 2428 3.5 22:53:05 10° NW 22:58:16 37° WSW 22:59:35 33° SW
Helios 1B rocket 4.3 22:58:19 15° W 22:58:19 15° W 23:00:25 10° NW
Meteor 2-4 Rocket 3.8 23:00:13 43° SSE 23:01:52 63° E 23:07:21 10° NNE
BlueWalker 3 3.4 23:05:21 24° E 23:05:21 24° E 23:07:01 10° ENE
ISS -1.0 23:01:06 10° W 23:01:11 10° W 23:01:11 10° W
Cosmos 2263 Rocket 3.4 23:03:56 24° SE 23:05:12 26° ESE 23:09:44 10° NE
CZ-2C R/B 3.3 23:01:32 10° NNE 23:07:21 80° ESE 23:09:26 42° S
Meteor 1-11 Rocket 4.1 23:03:00 10° NNW 23:08:27 50° W 23:10:10 37° SW
Cosmos 1766 Rocket 3.4 23:05:08 10° N 23:09:28 86° W 23:10:08 63° S
Cosmos 1238 Rocket 2.7 23:14:04 68° SSW 23:14:35 88° WNW 23:19:01 10° N
PSLV R/B 4.2 23:11:54 10° N 23:16:03 48° WNW 23:17:16 37° WSW
Cosmos 1655 Rocket 3.9 23:15:25 10° N 23:21:41 85° W 23:24:15 39° S
Cosmos 192 4.2 23:18:02 10° NNW 23:22:59 83° WSW 23:24:20 49° SSE
Cosmos 1814 Rocket 4.1 23:21:58 46° SSE 23:23:20 63° ESE 23:28:32 10° NNE
Alouette 2 Rocket 3.6 23:23:32 10° NNW 23:27:22 71° WSW 23:28:18 53° SSW
Meteor 1-27 Rocket 4.0 23:25:49 37° SW 23:28:08 65° WNW 23:33:51 10° N
Meteor 2-11 Rocket 4.4 23:22:22 10° N 23:28:32 80° E 23:31:13 36° SSE
Meteor 2-10 Rocket 3.6 23:24:28 10° NNW 23:30:03 90° W 23:32:13 40° S
Cosmos 2297 Rocket 2.4 23:27:59 32° SW 23:30:36 66° WNW 23:36:15 10° NNE
Cosmos 1340 Rocket 4.2 23:27:58 10° N 23:31:26 31° ENE 23:32:47 24° ESE
Cosmos 1151 Rocket 4.1 23:34:52 29° ESE 23:35:58 34° E 23:39:52 10° NNE
BREEZE-M DEB (TANK) 4.4 23:39:18 20° ESE 23:39:18 20° ESE 23:41:05 10° ESE
DELTA 2 DEB (DPAF) 4.1 23:35:26 10° NNE 23:38:53 46° E 23:39:02 45° ESE
SL-14 R/B 3.4 23:39:49 54° SE 23:40:12 57° E 23:43:57 10° NNE
Cosmos 158 Rocket 4.0 23:39:40 42° SSW 23:41:32 85° WNW 23:46:53 10° NNE
CZ-4C R/B 3.1 23:38:20 10° NNE 23:41:43 62° ESE 23:41:47 62° ESE
Cosmos 1244 Rocket 4.4 23:35:44 10° N 23:41:56 84° E 23:44:47 34° SSE
ACS3 Solar Sail 2.0 23:37:38 10° NNE 23:43:34 59° E 23:46:11 33° SSE
Landsat 5 3.3 23:43:43 10° NNE 23:47:48 80° WNW 23:48:28 60° SW
Cosmos 1500 Rocket 4.0 23:44:58 10° N 23:49:20 56° ENE 23:50:57 35° SE
IDEFIX/ARIANE 42P 4.3 23:45:47 10° NE 23:49:55 23° E 23:52:42 16° SE
